Find Starlink 38101

NORAD ID: 100110 Int'l Des: 2026-166 Owner: SPXS Country: US Constellation: starlink operational

Current View

Loading 3D Globe...

About Starlink 38101

Starlink 38101 (NORAD 100110) is a starlink constellation satellite (v2 mini) launched Jul 21, 2026 by SPXS of US. with a mass of 575.00 kg.

Upcoming Passes

Passes for default location (London). Set your location on the main map for personalized predictions.

Altitude History

Loading altitude history...

Two-Line Element Set

1 A0110U 26166K 26228.20761342 .00026757 00000-0 17962-3 0 9993
2 A0110 97.2843 244.7553 0001211 93.2460 266.8944 15.75199577 4049
Epoch: Aug 16, 2026 • Age: 23 hours

Current Status

Altitude 349.9 km
Apogee / Perigee N/A
Velocity 7.70 km/s
Sub-Earth Point 43.39°N, 40.68°E
Launch Date Jul 21, 2026
Age 26 days
Type internet

Technical Details

Classification Payload
Mass 575.00 kg
Dry Mass 530.00 kg
Total Mass 575.00 kg
Length 0.30 m
Diameter 4.10 m
Span 29.00 m
Shape Box + pan
Manufacturer SPXS
Bus Type Starlink V2MO
Phase Status In Orbit
Owner/State SPXS/US

Most Searched